Location: Unspecified
(58.9933°N, 5.6375°E)
Time: 01:29:19
(UTC+01:00)

Resurs 1-4 Rocket - Visible Passes

Search period start: 01 February 2015 00:00
Search period end: 11 February 2015 00:00
Orbit: 801 x 814 km, 98.4° (Epoch: 30 January)

Date Brightness Start Highest point End Pass type
(mag) Time Alt. Az. Time Alt. Az. Time Alt. Az.
01 Feb 4.5 03:06:45 10° NE 03:09:23 18° ENE 03:09:23 18° ENE visible
01 Feb 2.4 04:45:52 10° NNE 04:50:29 65° NE 04:50:29 65° NE visible
01 Feb 3.0 06:26:11 10° N 06:30:44 29° NW 06:31:34 28° WNW visible
02 Feb 4.9 02:43:12 10° NE 02:44:44 12° ENE 02:44:44 12° ENE visible
02 Feb 2.9 04:21:25 10° NNE 04:25:50 50° ENE 04:25:50 50° ENE visible
02 Feb 2.6 06:01:33 10° N 06:06:28 39° WNW 06:06:56 38° WNW visible
02 Feb 3.9 07:42:34 10° N 07:45:08 14° NW 07:47:35 10° WNW visible
03 Feb 3.5 03:57:04 10° NNE 04:01:13 36° ENE 04:01:13 36° ENE visible
03 Feb 2.2 05:36:58 10° NNE 05:42:09 53° WNW 05:42:18 52° WNW visible
03 Feb 3.6 07:17:41 10° N 07:21:05 17° NW 07:23:24 13° WNW visible
04 Feb 4.0 03:32:49 10° NNE 03:36:34 26° ENE 03:36:34 26° ENE visible
04 Feb 2.0 05:12:25 10° NNE 05:17:40 73° WNW 05:17:40 73° WNW visible
04 Feb 3.4 06:52:56 10° N 06:56:57 22° NW 06:58:46 18° WNW visible
05 Feb 4.4 03:08:46 10° NE 03:11:56 19° ENE 03:11:56 19° ENE visible
05 Feb 2.1 04:47:55 10° NNE 04:53:03 78° ENE 04:53:03 78° ENE visible
05 Feb 3.0 06:28:15 10° N 06:32:46 28° NW 06:34:09 25° WNW visible
06 Feb 4.8 02:45:07 10° NE 02:47:19 13° ENE 02:47:19 13° ENE visible
06 Feb 2.6 04:23:29 10° NNE 04:28:25 56° E 04:28:25 56° E visible
06 Feb 2.7 06:03:37 10° N 06:08:31 37° WNW 06:09:31 34° W visible
06 Feb 3.9 07:44:41 10° N 07:47:09 13° NW 07:49:31 10° WNW visible
07 Feb 3.3 03:59:07 10° NNE 04:03:48 40° E 04:03:48 40° E visible
07 Feb 2.3 05:39:02 10° NNE 05:44:12 51° WNW 05:44:54 48° W visible
07 Feb 3.7 07:19:47 10° N 07:23:06 17° NW 07:26:00 11° WNW visible
08 Feb 3.8 03:34:51 10° NNE 03:39:10 28° E 03:39:10 28° E visible
08 Feb 2.0 05:14:29 10° NNE 05:19:49 71° WNW 05:20:16 67° WSW visible
08 Feb 3.4 06:55:01 10° N 06:58:59 21° NW 07:01:22 16° W visible
09 Feb 4.3 03:10:46 10° NE 03:14:33 20° E 03:14:33 20° E visible
09 Feb 2.0 04:49:58 10° NNE 04:55:22 84° ESE 04:55:39 79° SSE visible
09 Feb 3.1 06:30:20 10° N 06:34:48 27° NW 06:36:45 22° W visible
10 Feb 4.7 02:47:03 10° NE 02:49:42 14° E 02:49:56 14° E visible
10 Feb 2.5 04:25:32 10° NNE 04:30:50 60° E 04:31:02 59° ESE visible
10 Feb 2.7 06:05:42 10° N 06:10:33 36° WNW 06:12:08 30° W visible
